Location: *
(34.8620°S, 39.3380°E)
Time: 04:04:45
(UTC+00:00)

YAOGAN 1 - Visible Passes

Search period start: 30 November 2021 00:00
Search period end: 10 December 2021 00:00
Orbit: 618 x 620 km, 97.9° (Epoch: 29 November)

Date Brightness Start Highest point End Pass type
(mag) Time Alt. Az. Time Alt. Az. Time Alt. Az.
30 Nov 4.4 17:38:21 10° S 17:42:19 33° WSW 17:46:13 10° NW visible
01 Dec 5.1 17:55:47 10° SSW 17:59:10 22° WSW 18:02:31 10° WNW visible
02 Dec 5.6 18:13:35 10° SSW 18:15:59 15° WSW 18:18:22 10° W visible
03 Dec 2.6 16:52:56 10° SSE 16:57:19 70° E 17:01:38 10° N visible
04 Dec 2.9 17:09:54 10° S 17:14:17 73° WSW 17:18:36 10° NNW visible
05 Dec 3.8 17:27:01 10° S 17:31:12 45° WSW 17:35:21 10° NW visible
06 Dec 4.7 17:44:18 10° SSW 17:48:06 29° WSW 17:51:50 10° NW visible
07 Dec 5.4 18:01:50 10° SSW 18:04:56 19° WSW 18:08:00 10° WNW visible
08 Dec 5.7 18:19:52 10° SW 18:21:44 13° WSW 18:23:34 10° W visible
09 Dec 2.6 16:58:43 10° SSE 17:03:08 82° ENE 17:07:29 10° N visible
